TimeEDT,TemperatureF,Dew PointF,Humidity,Sea Level PressureIn,VisibilityMPH,Wind Direction,Wind SpeedMPH,Gust SpeedMPH,PrecipitationIn,Events,Conditions,WindDirDegrees,DateUTC
12:56 AM,44.1,33.1,65,29.88,10.0,WNW,9.2,-,N/A,,Overcast,290,2013-10-24 04:56:00
1:56 AM,42.1,32.0,67,29.90,10.0,West,5.8,-,N/A,,Partly Cloudy,260,2013-10-24 05:56:00
2:56 AM,41.0,30.9,67,29.91,10.0,WSW,4.6,-,N/A,,Mostly Cloudy,250,2013-10-24 06:56:00
3:56 AM,39.0,32.0,76,29.92,10.0,West,9.2,-,N/A,,Partly Cloudy,260,2013-10-24 07:56:00
4:56 AM,37.9,32.0,79,29.94,10.0,WSW,4.6,-,N/A,,Clear,250,2013-10-24 08:56:00
5:56 AM,37.0,30.9,79,29.96,10.0,West,3.5,-,N/A,,Clear,260,2013-10-24 09:56:00
6:56 AM,37.9,30.9,76,29.96,10.0,West,5.8,-,N/A,,Clear,270,2013-10-24 10:56:00
7:56 AM,37.9,32.0,79,29.99,10.0,Calm,Calm,-,N/A,,Clear,0,2013-10-24 11:56:00
8:56 AM,41.0,33.1,73,30.01,10.0,West,5.8,-,N/A,,Scattered Clouds,260,2013-10-24 12:56:00
9:56 AM,45.0,34.0,65,30.01,10.0,WSW,11.5,-,N/A,,Partly Cloudy,250,2013-10-24 13:56:00
10:56 AM,44.1,28.9,55,30.01,10.0,West,11.5,-,N/A,,Mostly Cloudy,280,2013-10-24 14:56:00
11:56 AM,46.9,28.9,50,30.01,10.0,WSW,15.0,26.5,N/A,,Mostly Cloudy,250,2013-10-24 15:56:00
12:56 PM,48.9,28.0,44,29.99,10.0,WSW,24.2,31.1,N/A,,Mostly Cloudy,250,2013-10-24 16:56:00
1:56 PM,46.9,27.0,46,29.99,10.0,West,12.7,19.6,N/A,,Overcast,270,2013-10-24 17:56:00
2:56 PM,46.9,26.1,44,29.99,10.0,West,13.8,19.6,N/A,,Overcast,260,2013-10-24 18:56:00
3:56 PM,46.9,26.1,44,30.00,10.0,WNW,6.9,-,N/A,,Overcast,290,2013-10-24 19:56:00
4:56 PM,48.0,26.1,42,30.01,10.0,WNW,9.2,-,N/A,,Scattered Clouds,290,2013-10-24 20:56:00
5:56 PM,46.0,25.0,44,30.02,10.0,West,6.9,-,N/A,,Clear,280,2013-10-24 21:56:00
6:56 PM,43.0,25.0,49,30.04,10.0,West,6.9,-,N/A,,Clear,280,2013-10-24 22:56:00
7:56 PM,41.0,25.0,53,30.06,10.0,West,4.6,-,N/A,,Clear,270,2013-10-24 23:56:00
8:56 PM,39.9,27.0,60,30.08,10.0,WSW,8.1,-,N/A,,Clear,250,2013-10-25 00:56:00
9:56 PM,39.0,27.0,62,30.09,10.0,West,8.1,-,N/A,,Clear,260,2013-10-25 01:56:00
10:56 PM,39.0,28.0,65,30.10,10.0,West,9.2,-,N/A,,Clear,260,2013-10-25 02:56:00
11:56 PM,39.0,28.0,65,30.11,10.0,West,8.1,-,N/A,,Clear,260,2013-10-25 03:56:00